This is the latest recevied weather packets stored in our database for station/object K0VSC-1. If no packets are shown the sender has not sent any weather packets the latest 10 day(s).
| Time | Temp. | Humidity | Pressure | Rain* | Wind** | Luminosity | Snow |
|---|---|---|---|---|---|---|---|
| 1777735693 | 11.11° C | 48% | 1016.9 hPa | 0 mm | - | 638 W/m² | - |
| 1777735393 | 11.11° C | 46% | 1017 hPa | 0 mm | - | 589 W/m² | - |
| 1777735093 | 10.56° C | 49% | 1017.1 hPa | 0 mm | - | 519 W/m² | - |
| 1777734793 | 10.56° C | 50% | 1017.1 hPa | 0 mm | - | 478 W/m² | - |
| 1777734493 | 10.56° C | 50% | 1017.3 hPa | 0 mm | - | 552 W/m² | - |
| 1777734193 | 10° C | 50% | 1017.3 hPa | 0 mm | - | 538 W/m² | - |
| 1777733893 | 10° C | 53% | 1017.4 hPa | 0 mm | - | 504 W/m² | - |
| 1777733593 | 10° C | 50% | 1017.4 hPa | 0 mm | - | 466 W/m² | - |
| 1777733293 | 9.44° C | 51% | 1017.4 hPa | 0 mm | - | 466 W/m² | - |
| 1777732993 | 9.44° C | 54% | 1017.5 hPa | 0 mm | - | 480 W/m² | - |
| 1777732693 | 9.44° C | 53% | 1017.6 hPa | 0 mm | - | 512 W/m² | - |
| 1777732393 | 8.89° C | 55% | 1017.7 hPa | 0 mm | - | 378 W/m² | - |
| 1777732093 | 8.89° C | 56% | 1017.7 hPa | 0 mm | - | 381 W/m² | - |
| 1777731793 | 8.89° C | 55% | 1017.7 hPa | 0 mm | - | 417 W/m² | - |
| 1777731493 | 8.33° C | 54% | 1017.8 hPa | 0 mm | - | 376 W/m² | - |
| 1777731193 | 8.33° C | 55% | 1017.8 hPa | 0 mm | - | 408 W/m² | - |
| 1777730893 | 8.33° C | 57% | 1017.8 hPa | 0 mm | - | 399 W/m² | - |
| 1777730593 | 7.78° C | 58% | 1018 hPa | 0 mm | - | 350 W/m² | - |
| 1777730293 | 7.78° C | 56% | 1017.9 hPa | 0 mm | - | 404 W/m² | - |
| 1777729993 | 7.78° C | 56% | 1017.9 hPa | 0 mm | - | 415 W/m² | - |
| 1777729742 | 7.22° C | 59% | 1018 hPa | 0 mm | - | 373 W/m² | - |
| 1777729693 | 7.22° C | 59% | 1018 hPa | 0 mm | - | 373 W/m² | - |
| 1777729393 | 6.67° C | 58% | 1018 hPa | 0 mm | - | 353 W/m² | - |
| 1777729093 | 6.67° C | 60% | 1018 hPa | 0 mm | - | 309 W/m² | - |
| 1777728793 | 6.67° C | 60% | 1018.1 hPa | 0 mm | - | 311 W/m² | - |
* Rain latest hour (hover to see other rain measurements)
** Current wind speed in m/s (hover to see current wind gust speed)